| time (UTC) | temp F | wind direction | speed MPH | gust MPH | rain 1hr in | rain 24hr in | rain mn in | humidity % | barometer mb |
| 20260506014030 | 77 | 0 | 0.0 | 3.0 | 0.00 | 0.00 | 0.00 | 63 | 1007.4 |
| 20260506013532 | 77 | 0 | 0.0 | 3.0 | 0.00 | 0.00 | 0.00 | 63 | 1007.1 |
| 20260506013046 | 78 | 0 | 0.0 | 3.0 | 0.00 | 0.00 | 0.00 | 62 | 1006.7 |
| 20260506012528 | 78 | 0 | 0.0 | 5.0 | 0.00 | 0.00 | 0.00 | 62 | 1006.7 |
| 20260506012031 | 78 | 360 | 0.0 | 5.0 | 0.00 | 0.00 | 0.00 | 62 | 1006.9 |
| 20260506011607 | 79 | 0 | 1.0 | 5.0 | 0.00 | 0.00 | 0.00 | 62 | 1007.4 |
| 20260506011031 | 79 | 317 | 0.0 | 7.0 | 0.00 | 0.00 | 0.00 | 62 | 1006.9 |
| 20260506010529 | 79 | 0 | 0.0 | 7.0 | 0.00 | 0.00 | 0.00 | 62 | 1006.4 |
| 20260506010037 | 80 | 281 | 0.0 | 5.0 | 0.00 | 0.00 | 0.00 | 61 | 1006.3 |
| 20260506005531 | 81 | 352 | 0.0 | 3.0 | 0.00 | 0.00 | 0.00 | 60 | 1006.4 |
| 20260506005033 | 81 | 0 | 0.0 | 1.0 | 0.00 | 0.00 | 0.00 | 60 | 1006.2 |
| 20260506004543 | 81 | 0 | 0.0 | 4.0 | 0.00 | 0.00 | 0.00 | 59 | 1006.3 |
| 20260506004029 | 82 | 0 | 0.0 | 4.0 | 0.00 | 0.00 | 0.00 | 59 | 1006.1 |
| 20260506003528 | 82 | 306 | 1.0 | 4.0 | 0.00 | 0.00 | 0.00 | 58 | 1006.1 |
| 20260506003043 | 82 | 0 | 0.0 | 2.0 | 0.00 | 0.00 | 0.00 | 58 | 1006.1 |
| 20260506002529 | 82 | 0 | 0.0 | 5.0 | 0.00 | 0.00 | 0.00 | 57 | 1006.1 |
| 20260506002030 | 83 | 0 | 0.0 | 5.0 | 0.00 | 0.00 | 0.00 | 57 | 1006.1 |
| 20260506001543 | 83 | 0 | 0.0 | 8.0 | 0.00 | 0.00 | 0.00 | 57 | 1006.1 |
| 20260506001031 | 83 | 319 | 1.0 | 8.0 | 0.00 | 0.00 | 0.00 | 56 | 1006.0 |
| 20260506000533 | 84 | 0 | 1.0 | 6.0 | 0.00 | 0.00 | 0.00 | 56 | 1005.9 |
| 20260506000046 | 85 | 293 | 1.0 | 6.0 | 0.00 | 0.00 | 0.00 | 55 | 1005.8 |
| 20260505235529 | 85 | 40 | 0.0 | 12.0 | 0.00 | 0.00 | 0.00 | 55 | 1005.5 |
| 20260505235029 | 86 | 293 | 0.0 | 12.0 | 0.00 | 0.00 | 0.00 | 54 | 1005.3 |
| 20260505234536 | 86 | 302 | 0.0 | 10.0 | 0.00 | 0.00 | 0.00 | 52 | 1005.4 |
| 20260505234031 | 87 | 315 | 3.0 | 10.0 | 0.00 | 0.00 | 0.00 | 50 | 1005.4 |
| 20260505233532 | 87 | 0 | 3.0 | 10.0 | 0.00 | 0.00 | 0.00 | 48 | 1005.3 |
| 20260505233042 | 88 | 294 | 2.0 | 10.0 | 0.00 | 0.00 | 0.00 | 48 | 1005.3 |
| 20260505232531 | 89 | 0 | 1.0 | 10.0 | 0.00 | 0.00 | 0.00 | 47 | 1005.2 |
| 20260505232028 | 90 | 317 | 1.0 | 10.0 | 0.00 | 0.00 | 0.00 | 46 | 1005.1 |
| 20260505231544 | 91 | 336 | 1.0 | 11.0 | 0.00 | 0.00 | 0.00 | 45 | 1004.8 |
| 20260505231030 | 91 | 316 | 1.0 | 11.0 | 0.00 | 0.00 | 0.00 | 47 | 1005.0 |
| 20260505230531 | 92 | 0 | 0.0 | 5.0 | 0.00 | 0.00 | 0.00 | 53 | 1004.6 |
| 20260505230038 | 92 | 0 | 1.0 | 7.0 | 0.00 | 0.00 | 0.00 | 52 | 1004.5 |
| 20260505225529 | 92 | 0 | 0.0 | 7.0 | 0.00 | 0.00 | 0.00 | 53 | 1004.5 |
| 20260505225030 | 92 | 186 | 0.0 | 7.0 | 0.00 | 0.00 | 0.00 | 52 | 1004.5 |
| 20260505224537 | 93 | 0 | 0.0 | 2.0 | 0.00 | 0.00 | 0.00 | 52 | 1004.5 |
| 20260505224031 | 93 | 272 | 0.0 | 3.0 | 0.00 | 0.00 | 0.00 | 52 | 1004.4 |
| 20260505223532 | 93 | 0 | 0.0 | 3.0 | 0.00 | 0.00 | 0.00 | 51 | 1004.5 |
| 20260505223044 | 93 | 0 | 0.0 | 4.0 | 0.00 | 0.00 | 0.00 | 52 | 1004.4 |
| 20260505222528 | 93 | 0 | 0.0 | 4.0 | 0.00 | 0.00 | 0.00 | 51 | 1004.3 |
| 20260505222031 | 93 | 193 | 1.0 | 4.0 | 0.00 | 0.00 | 0.00 | 50 | 1004.3 |
| 20260505221554 | 94 | 0 | 0.0 | 4.0 | 0.00 | 0.00 | 0.00 | 51 | 1004.3 |
| 20260505221030 | 94 | 0 | 0.0 | 4.0 | 0.00 | 0.00 | 0.00 | 50 | 1004.4 |
| 20260505220533 | 94 | 185 | 0.0 | 3.0 | 0.00 | 0.00 | 0.00 | 50 | 1004.3 |
| 20260505220054 | 94 | 182 | 0.0 | 3.0 | 0.00 | 0.00 | 0.00 | 50 | 1004.3 |
| 20260505215531 | 94 | 211 | 0.0 | 4.0 | 0.00 | 0.00 | 0.00 | 50 | 1004.3 |
| 20260505215030 | 94 | 0 | 0.0 | 4.0 | 0.00 | 0.00 | 0.00 | 50 | 1004.4 |
| 20260505214551 | 94 | 231 | 0.0 | 3.0 | 0.00 | 0.00 | 0.00 | 50 | 1004.5 |
| 20260505214030 | 94 | 0 | 0.0 | 3.0 | 0.00 | 0.00 | 0.00 | 51 | 1004.4 |
| 20260505213528 | 94 | 144 | 0.0 | 4.0 | 0.00 | 0.00 | 0.00 | 52 | 1004.6 |
| 20260505213040 | 93 | 0 | 0.0 | 8.0 | 0.00 | 0.00 | 0.00 | 53 | 1004.7 |
| 20260505212529 | 93 | 279 | 1.0 | 8.0 | 0.00 | 0.00 | 0.00 | 52 | 1004.7 |
| 20260505212029 | 93 | 163 | 0.0 | 9.0 | 0.00 | 0.00 | 0.00 | 52 | 1004.7 |
| 20260505211539 | 92 | 5 | 1.0 | 9.0 | 0.00 | 0.00 | 0.00 | 53 | 1004.9 |
| 20260505211029 | 92 | 188 | 1.0 | 7.0 | 0.00 | 0.00 | 0.00 | 54 | 1004.9 |
| 20260505210528 | 92 | 164 | 0.0 | 8.0 | 0.00 | 0.00 | 0.00 | 54 | 1005.0 |
| 20260505210049 | 92 | 258 | 1.0 | 8.0 | 0.00 | 0.00 | 0.00 | 55 | 1005.0 |
| 20260505205533 | 91 | 198 | 1.0 | 8.0 | 0.00 | 0.00 | 0.00 | 55 | 1005.0 |
| 20260505205026 | 91 | 203 | 1.0 | 6.0 | 0.00 | 0.00 | 0.00 | 57 | 1005.1 |
| 20260505204538 | 90 | 134 | 1.0 | 6.0 | 0.00 | 0.00 | 0.00 | 56 | 1005.3 |
| 20260505204029 | 90 | 189 | 1.0 | 5.0 | 0.00 | 0.00 | 0.00 | 57 | 1005.3 |
| 20260505203526 | 90 | 0 | 1.0 | 8.0 | 0.00 | 0.00 | 0.00 | 57 | 1005.5 |
| 20260505203039 | 90 | 262 | 1.0 | 8.0 | 0.00 | 0.00 | 0.00 | 58 | 1005.4 |
| 20260505202526 | 89 | 174 | 1.0 | 7.0 | 0.00 | 0.00 | 0.00 | 58 | 1005.4 |
| 20260505202025 | 89 | 0 | 1.0 | 7.0 | 0.00 | 0.00 | 0.00 | 59 | 1005.4 |
| 20260505201541 | 89 | 160 | 1.0 | 7.0 | 0.00 | 0.00 | 0.00 | 59 | 1005.5 |
| 20260505201026 | 89 | 283 | 1.0 | 13.0 | 0.00 | 0.00 | 0.00 | 60 | 1005.6 |
| 20260505200526 | 89 | 0 | 2.0 | 13.0 | 0.00 | 0.00 | 0.00 | 59 | 1005.5 |
| 20260505200037 | 89 | 266 | 3.0 | 10.0 | 0.00 | 0.00 | 0.00 | 58 | 1005.6 |
| 20260505195525 | 89 | 257 | 2.0 | 9.0 | 0.00 | 0.00 | 0.00 | 58 | 1005.6 |
| 20260505195025 | 89 | 190 | 1.0 | 9.0 | 0.00 | 0.00 | 0.00 | 60 | 1005.6 |
| 20260505194535 | 88 | 200 | 1.0 | 9.0 | 0.00 | 0.00 | 0.00 | 60 | 1005.7 |
| 20260505194029 | 88 | 216 | 1.0 | 5.0 | 0.00 | 0.00 | 0.00 | 60 | 1005.7 |
| 20260505193526 | 88 | 254 | 1.0 | 8.0 | 0.00 | 0.00 | 0.00 | 61 | 1005.8 |
| 20260505193042 | 87 | 174 | 1.0 | 10.0 | 0.00 | 0.00 | 0.00 | 61 | 1005.6 |
| 20260505192526 | 87 | 262 | 1.0 | 10.0 | 0.00 | 0.00 | 0.00 | 61 | 1005.6 |
| 20260505192028 | 87 | 236 | 1.0 | 8.0 | 0.00 | 0.00 | 0.00 | 61 | 1005.7 |
| 20260505191542 | 87 | 175 | 0.0 | 8.0 | 0.00 | 0.00 | 0.00 | 63 | 1005.7 |
| 20260505191027 | 86 | 288 | 1.0 | 5.0 | 0.00 | 0.00 | 0.00 | 63 | 1005.7 |
| 20260505190529 | 86 | 165 | 0.0 | 7.0 | 0.00 | 0.00 | 0.00 | 65 | 1005.6 |
| 20260505190039 | 86 | 244 | 1.0 | 7.0 | 0.00 | 0.00 | 0.00 | 65 | 1005.8 |
| 20260505185526 | 85 | 158 | 1.0 | 9.0 | 0.00 | 0.00 | 0.00 | 65 | 1005.8 |
| 20260505185029 | 85 | 188 | 1.0 | 11.0 | 0.00 | 0.00 | 0.00 | 65 | 1005.8 |
| 20260505184536 | 85 | 0 | 2.0 | 11.0 | 0.00 | 0.00 | 0.00 | 65 | 1006.0 |
| 20260505184027 | 85 | 239 | 1.0 | 6.0 | 0.00 | 0.00 | 0.00 | 65 | 1005.8 |
| 20260505183527 | 85 | 167 | 0.0 | 7.0 | 0.00 | 0.00 | 0.00 | 66 | 1005.9 |
| 20260505183047 | 85 | 224 | 1.0 | 7.0 | 0.00 | 0.00 | 0.00 | 66 | 1005.9 |
| 20260505182526 | 84 | 194 | 0.0 | 9.0 | 0.00 | 0.00 | 0.00 | 66 | 1005.8 |
| 20260505182026 | 84 | 0 | 2.0 | 9.0 | 0.00 | 0.00 | 0.00 | 67 | 1005.9 |
| 20260505181536 | 84 | 170 | 1.0 | 6.0 | 0.00 | 0.00 | 0.00 | 66 | 1006.0 |
| 20260505181026 | 84 | 184 | 1.0 | 7.0 | 0.00 | 0.00 | 0.00 | 66 | 1006.0 |
| 20260505180526 | 84 | 0 | 1.0 | 7.0 | 0.00 | 0.00 | 0.00 | 66 | 1006.0 |
| 20260505180041 | 84 | 250 | 1.0 | 7.0 | 0.00 | 0.00 | 0.00 | 66 | 1006.1 |
| 20260505175526 | 84 | 216 | 0.0 | 6.0 | 0.00 | 0.00 | 0.00 | 66 | 1006.0 |
| 20260505175031 | 84 | 0 | 1.0 | 9.0 | 0.00 | 0.00 | 0.00 | 67 | 1006.1 |
| 20260505174541 | 84 | 244 | 1.0 | 9.0 | 0.00 | 0.00 | 0.00 | 67 | 1006.1 |
| 20260505174032 | 84 | 222 | 1.0 | 8.0 | 0.00 | 0.00 | 0.00 | 68 | 1006.1 |
| 20260505173528 | 83 | 228 | 1.0 | 8.0 | 0.00 | 0.00 | 0.00 | 69 | 1006.1 |
| 20260505173038 | 83 | 0 | 1.0 | 5.0 | 0.00 | 0.00 | 0.00 | 68 | 1006.1 |
| 20260505172530 | 83 | 290 | 1.0 | 5.0 | 0.00 | 0.00 | 0.00 | 69 | 1006.1 |
| 20260505172031 | 83 | 214 | 1.0 | 7.0 | 0.00 | 0.00 | 0.00 | 69 | 1006.1 |
| 20260505171536 | 83 | 234 | 1.0 | 9.0 | 0.00 | 0.00 | 0.00 | 68 | 1006.0 |
| 20260505171030 | 82 | 208 | 2.0 | 9.0 | 0.00 | 0.00 | 0.00 | 68 | 1006.1 |
| 20260505170530 | 82 | 251 | 1.0 | 7.0 | 0.00 | 0.00 | 0.00 | 69 | 1006.1 |
| 20260505170036 | 82 | 211 | 1.0 | 8.0 | 0.00 | 0.00 | 0.00 | 70 | 1006.3 |
| 20260505165530 | 82 | 270 | 1.0 | 8.0 | 0.00 | 0.00 | 0.00 | 70 | 1006.2 |
| 20260505165030 | 81 | 0 | 1.0 | 8.0 | 0.00 | 0.00 | 0.00 | 70 | 1006.3 |
| 20260505164554 | 81 | 214 | 1.0 | 7.0 | 0.00 | 0.00 | 0.00 | 70 | 1006.2 |
| 20260505164030 | 81 | 175 | 1.0 | 10.0 | 0.00 | 0.00 | 0.00 | 71 | 1006.2 |
| 20260505163531 | 81 | 260 | 1.0 | 10.0 | 0.00 | 0.00 | 0.00 | 71 | 1006.2 |
| 20260505163037 | 81 | 305 | 2.0 | 8.0 | 0.00 | 0.00 | 0.00 | 71 | 1006.4 |
| 20260505162530 | 80 | 210 | 0.0 | 7.0 | 0.00 | 0.00 | 0.00 | 72 | 1006.2 |
| 20260505162031 | 80 | 227 | 2.0 | 8.0 | 0.00 | 0.00 | 0.00 | 72 | 1006.3 |
| 20260505161553 | 80 | 212 | 1.0 | 8.0 | 0.00 | 0.00 | 0.00 | 73 | 1006.4 |
| 20260505161029 | 80 | 157 | 2.0 | 9.0 | 0.00 | 0.00 | 0.00 | 73 | 1006.1 |
| 20260505160529 | 79 | 0 | 1.0 | 10.0 | 0.00 | 0.00 | 0.00 | 74 | 1006.0 |
| 20260505153046 | 78 | 169 | 2.0 | 9.0 | 0.00 | 0.00 | 0.00 | 76 | 1005.8 |
| 20260505152530 | 77 | 248 | 0.0 | 9.0 | 0.00 | 0.00 | 0.00 | 77 | 1006.0 |
| 20260505152028 | 77 | 0 | 1.0 | 9.0 | 0.00 | 0.00 | 0.00 | 78 | 1006.0 |
| 20260505151540 | 76 | 0 | 1.0 | 8.0 | 0.00 | 0.00 | 0.00 | 78 | 1006.1 |
| 20260505151028 | 76 | 0 | 1.0 | 8.0 | 0.00 | 0.00 | 0.00 | 78 | 1006.2 |
| 20260505150529 | 76 | 205 | 1.0 | 5.0 | 0.00 | 0.00 | 0.00 | 78 | 1006.1 |
| 20260505140532 | 73 | 0 | 0.0 | 4.0 | 0.00 | 0.00 | 0.00 | 83 | 1005.8 |
| 20260505125028 | 71 | 173 | 1.0 | 7.0 | 0.00 | 0.00 | 0.00 | 84 | 1005.6 |
| 20260505124547 | 71 | 164 | 0.0 | 7.0 | 0.00 | 0.00 | 0.00 | 84 | 1005.6 |
| 20260505124029 | 71 | 161 | 1.0 | 7.0 | 0.00 | 0.00 | 0.00 | 84 | 1005.6 |
| 20260505123529 | 71 | 0 | 1.0 | 11.0 | 0.00 | 0.00 | 0.00 | 84 | 1005.5 |
| 20260505123037 | 71 | 0 | 0.0 | 11.0 | 0.00 | 0.00 | 0.00 | 84 | 1005.3 |
| 20260505122530 | 71 | 0 | 1.0 | 11.0 | 0.00 | 0.00 | 0.00 | 84 | 1005.1 |
| 20260505122029 | 71 | 155 | 0.0 | 9.0 | 0.00 | 0.00 | 0.00 | 84 | 1005.1 |
| 20260505121537 | 71 | 0 | 0.0 | 9.0 | 0.00 | 0.00 | 0.00 | 84 | 1004.9 |
| 20260505121029 | 71 | 0 | 0.0 | 10.0 | 0.00 | 0.00 | 0.00 | 84 | 1005.0 |
| 20260505120529 | 71 | 0 | 1.0 | 10.0 | 0.00 | 0.00 | 0.00 | 84 | 1005.2 |
| 20260505120054 | 71 | 182 | 1.0 | 6.0 | 0.00 | 0.00 | 0.00 | 84 | 1005.0 |
| 20260505115528 | 71 | 154 | 1.0 | 9.0 | 0.00 | 0.00 | 0.00 | 84 | 1005.1 |
| 20260505115032 | 71 | 217 | 1.0 | 10.0 | 0.00 | 0.00 | 0.00 | 84 | 1005.1 |
| 20260505114542 | 71 | 217 | 0.0 | 10.0 | 0.00 | 0.00 | 0.00 | 84 | 1005.0 |
| 20260505114029 | 71 | 0 | 1.0 | 4.0 | 0.00 | 0.00 | 0.00 | 84 | 1004.9 |
| 20260505113530 | 71 | 0 | 0.0 | 6.0 | 0.00 | 0.00 | 0.00 | 84 | 1005.0 |
| 20260505113054 | 71 | 230 | 1.0 | 6.0 | 0.00 | 0.00 | 0.00 | 84 | 1004.9 |
| 20260505112529 | 71 | 0 | 0.0 | 6.0 | 0.00 | 0.00 | 0.00 | 84 | 1004.6 |
| 20260505112029 | 71 | 0 | 0.0 | 9.0 | 0.00 | 0.00 | 0.00 | 84 | 1004.7 |
| 20260505111537 | 71 | 178 | 1.0 | 9.0 | 0.00 | 0.00 | 0.00 | 84 | 1004.6 |
| 20260505111029 | 71 | 207 | 1.0 | 6.0 | 0.00 | 0.00 | 0.00 | 84 | 1004.8 |
| 20260505110528 | 71 | 0 | 0.0 | 6.0 | 0.00 | 0.00 | 0.00 | 84 | 1004.9 |
| 20260505102030 | 71 | 0 | 0.0 | 8.0 | 0.00 | 0.00 | 0.00 | 84 | 1004.9 |
| 20260505101542 | 71 | 180 | 0.0 | 8.0 | 0.00 | 0.00 | 0.00 | 84 | 1005.0 |
| 20260505101029 | 71 | 234 | 2.0 | 8.0 | 0.00 | 0.00 | 0.00 | 84 | 1004.8 |
| 20260505100531 | 71 | 172 | 0.0 | 7.0 | 0.00 | 0.00 | 0.00 | 84 | 1005.0 |
| 20260505100038 | 71 | 164 | 1.0 | 5.0 | 0.00 | 0.00 | 0.00 | 84 | 1005.0 |
| 20260505095528 | 71 | 184 | 1.0 | 6.0 | 0.00 | 0.00 | 0.00 | 84 | 1005.0 |
| 20260505095030 | 71 | 0 | 1.0 | 6.0 | 0.00 | 0.00 | 0.00 | 84 | 1005.1 |
| 20260505094537 | 71 | 209 | 1.0 | 9.0 | 0.00 | 0.00 | 0.00 | 84 | 1005.0 |
| 20260505094029 | 71 | 178 | 1.0 | 9.0 | 0.00 | 0.00 | 0.00 | 84 | 1005.2 |
| 20260505093530 | 71 | 0 | 0.0 | 7.0 | 0.00 | 0.00 | 0.00 | 84 | 1005.1 |
| 20260505093037 | 71 | 0 | 0.0 | 7.0 | 0.00 | 0.00 | 0.00 | 84 | 1005.3 |
| 20260505092529 | 71 | 0 | 1.0 | 10.0 | 0.00 | 0.00 | 0.00 | 84 | 1005.4 |
| 20260505092030 | 71 | 0 | 0.0 | 10.0 | 0.00 | 0.00 | 0.00 | 84 | 1005.4 |
| 20260505091536 | 71 | 0 | 1.0 | 10.0 | 0.00 | 0.00 | 0.00 | 84 | 1005.4 |
| 20260505091029 | 71 | 213 | 1.0 | 7.0 | 0.00 | 0.00 | 0.00 | 84 | 1005.3 |
| 20260505090529 | 71 | 155 | 1.0 | 6.0 | 0.00 | 0.00 | 0.00 | 83 | 1005.5 |
| 20260505090043 | 71 | 275 | 0.0 | 7.0 | 0.00 | 0.00 | 0.00 | 83 | 1005.3 |
| 20260505085528 | 71 | 111 | 1.0 | 8.0 | 0.00 | 0.00 | 0.00 | 83 | 1005.2 |
| 20260505085029 | 71 | 0 | 1.0 | 8.0 | 0.00 | 0.00 | 0.00 | 83 | 1005.3 |
| 20260505084545 | 71 | 198 | 1.0 | 8.0 | 0.00 | 0.00 | 0.00 | 83 | 1005.2 |
| 20260505084028 | 71 | 0 | 1.0 | 8.0 | 0.00 | 0.00 | 0.00 | 83 | 1005.4 |
| 20260505083528 | 71 | 167 | 1.0 | 8.0 | 0.00 | 0.00 | 0.00 | 83 | 1005.5 |
| 20260505083047 | 71 | 260 | 1.0 | 7.0 | 0.00 | 0.00 | 0.00 | 82 | 1005.4 |
| 20260505082529 | 71 | 0 | 1.0 | 13.0 | 0.00 | 0.00 | 0.00 | 82 | 1005.5 |
| 20260505082030 | 71 | 194 | 1.0 | 13.0 | 0.00 | 0.00 | 0.00 | 82 | 1005.5 |
| 20260505081541 | 71 | 0 | 2.0 | 6.0 | 0.00 | 0.00 | 0.00 | 82 | 1005.5 |
| 20260505081029 | 71 | 0 | 2.0 | 15.0 | 0.00 | 0.00 | 0.00 | 81 | 1005.5 |
| 20260505080530 | 72 | 215 | 1.0 | 15.0 | 0.00 | 0.00 | 0.00 | 81 | 1005.6 |
| 20260505080042 | 72 | 126 | 2.0 | 13.0 | 0.00 | 0.00 | 0.00 | 81 | 1005.5 |
| 20260505075528 | 72 | 0 | 1.0 | 13.0 | 0.00 | 0.00 | 0.00 | 81 | 1005.5 |
| 20260505075028 | 72 | 190 | 1.0 | 6.0 | 0.00 | 0.00 | 0.00 | 80 | 1005.7 |
| 20260505074542 | 72 | 197 | 0.0 | 10.0 | 0.00 | 0.00 | 0.00 | 80 | 1005.8 |
| 20260505074028 | 72 | 0 | 1.0 | 10.0 | 0.00 | 0.00 | 0.00 | 80 | 1005.8 |
| 20260505073528 | 72 | 192 | 1.0 | 7.0 | 0.00 | 0.00 | 0.00 | 80 | 1005.9 |
| 20260505073040 | 72 | 0 | 0.0 | 5.0 | 0.00 | 0.00 | 0.00 | 79 | 1006.1 |
| 20260505072530 | 72 | 0 | 1.0 | 8.0 | 0.00 | 0.00 | 0.00 | 79 | 1006.4 |
| 20260505072029 | 72 | 0 | 1.0 | 8.0 | 0.00 | 0.00 | 0.00 | 79 | 1006.4 |
| 20260505071538 | 72 | 0 | 1.0 | 9.0 | 0.00 | 0.00 | 0.00 | 79 | 1006.5 |
| 20260505071029 | 73 | 145 | 2.0 | 9.0 | 0.00 | 0.00 | 0.00 | 79 | 1006.5 |
| 20260505070531 | 73 | 164 | 1.0 | 8.0 | 0.00 | 0.00 | 0.00 | 79 | 1006.6 |
| 20260505070043 | 73 | 0 | 0.0 | 13.0 | 0.00 | 0.00 | 0.00 | 78 | 1006.6 |
| 20260505065529 | 73 | 0 | 0.0 | 13.0 | 0.00 | 0.00 | 0.00 | 78 | 1006.7 |
| 20260505065029 | 73 | 194 | 1.0 | 8.0 | 0.00 | 0.00 | 0.00 | 78 | 1006.8 |
| 20260505064551 | 73 | 220 | 0.0 | 7.0 | 0.00 | 0.00 | 0.00 | 78 | 1006.9 |
| 20260505064028 | 73 | 0 | 1.0 | 7.0 | 0.00 | 0.00 | 0.00 | 78 | 1006.9 |
| 20260505063528 | 73 | 327 | 0.0 | 6.0 | 0.00 | 0.00 | 0.00 | 77 | 1006.9 |
| 20260505063042 | 73 | 169 | 1.0 | 14.0 | 0.00 | 0.00 | 0.00 | 77 | 1006.9 |
| 20260505062529 | 73 | 196 | 1.0 | 14.0 | 0.00 | 0.00 | 0.00 | 77 | 1006.9 |
| 20260505062030 | 73 | 184 | 0.0 | 8.0 | 0.00 | 0.00 | 0.00 | 77 | 1006.9 |
| 20260505061542 | 73 | 147 | 1.0 | 5.0 | 0.00 | 0.00 | 0.00 | 77 | 1007.0 |
| 20260505061029 | 73 | 180 | 0.0 | 5.0 | 0.00 | 0.00 | 0.00 | 76 | 1007.0 |
| 20260505060529 | 73 | 184 | 1.0 | 5.0 | 0.00 | 0.00 | 0.00 | 76 | 1006.9 |
| 20260505060040 | 73 | 0 | 0.0 | 7.0 | 0.00 | 0.00 | 0.00 | 76 | 1006.9 |
| 20260505055529 | 73 | 0 | 1.0 | 7.0 | 0.00 | 0.00 | 0.00 | 76 | 1006.9 |
| 20260505055029 | 73 | 0 | 1.0 | 7.0 | 0.00 | 0.00 | 0.00 | 76 | 1006.9 |
| 20260505054538 | 73 | 190 | 1.0 | 6.0 | 0.00 | 0.00 | 0.00 | 76 | 1006.9 |
| 20260505054032 | 73 | 98 | 1.0 | 6.0 | 0.00 | 0.00 | 0.00 | 75 | 1007.0 |
| 20260505053533 | 73 | 194 | 1.0 | 8.0 | 0.00 | 0.00 | 0.00 | 75 | 1007.0 |
| 20260505053108 | 73 | 186 | 1.0 | 8.0 | 0.00 | 0.00 | 0.00 | 75 | 1007.0 |
| 20260505052528 | 73 | 138 | 0.0 | 7.0 | 0.00 | 0.00 | 0.00 | 75 | 1007.0 |
| 20260505052032 | 73 | 217 | 1.0 | 11.0 | 0.00 | 0.00 | 0.00 | 75 | 1007.2 |
| 20260505051536 | 73 | 0 | 1.0 | 11.0 | 0.00 | 0.00 | 0.00 | 74 | 1007.2 |
| 20260505051028 | 73 | 195 | 1.0 | 10.0 | 0.00 | 0.00 | 0.00 | 74 | 1007.1 |
| 20260505050528 | 73 | 0 | 1.0 | 7.0 | 0.00 | 0.00 | 0.00 | 74 | 1007.1 |
| 20260505041542 | 74 | 178 | 2.0 | 11.0 | 0.00 | 0.00 | 0.00 | 72 | 1007.3 |
| 20260505041029 | 74 | 0 | 2.0 | 11.0 | 0.00 | 0.00 | 0.00 | 72 | 1007.5 |
| 20260505040529 | 74 | 0 | 1.0 | 9.0 | 0.00 | 0.00 | 0.00 | 72 | 1007.5 |
| 20260505040039 | 74 | 0 | 2.0 | 8.0 | 0.00 | 0.00 | 0.00 | 71 | 1007.6 |
| 20260505035531 | 74 | 186 | 0.0 | 9.0 | 0.00 | 0.00 | 0.00 | 71 | 1007.6 |
| 20260505035029 | 75 | 176 | 2.0 | 9.0 | 0.00 | 0.00 | 0.00 | 71 | 1007.5 |
| 20260505034552 | 75 | 238 | 0.0 | 7.0 | 0.00 | 0.00 | 0.00 | 71 | 1007.5 |
| 20260505034031 | 75 | 0 | 1.0 | 7.0 | 0.00 | 0.00 | 0.00 | 71 | 1007.3 |
| 20260505033531 | 75 | 121 | 1.0 | 8.0 | 0.00 | 0.00 | 0.00 | 70 | 1007.3 |
| 20260505033045 | 75 | 170 | 1.0 | 8.0 | 0.00 | 0.00 | 0.00 | 70 | 1007.3 |
| 20260505032528 | 75 | 0 | 1.0 | 8.0 | 0.00 | 0.00 | 0.00 | 70 | 1007.4 |
| 20260505032028 | 75 | 0 | 1.0 | 9.0 | 0.00 | 0.00 | 0.00 | 70 | 1007.3 |
| 20260505031540 | 75 | 160 | 0.0 | 9.0 | 0.00 | 0.00 | 0.00 | 70 | 1007.5 |
| 20260505031032 | 75 | 165 | 1.0 | 7.0 | 0.00 | 0.00 | 0.00 | 69 | 1007.5 |
| 20260505030530 | 75 | 0 | 1.0 | 6.0 | 0.00 | 0.00 | 0.00 | 69 | 1007.6 |
| 20260505030036 | 75 | 0 | 0.0 | 6.0 | 0.00 | 0.00 | 0.00 | 69 | 1007.5 |
| 20260505025529 | 75 | 167 | 0.0 | 7.0 | 0.00 | 0.00 | 0.00 | 69 | 1007.7 |
| 20260505025028 | 75 | 200 | 2.0 | 7.0 | 0.00 | 0.00 | 0.00 | 69 | 1007.6 |
| 20260505024535 | 75 | 0 | 0.0 | 6.0 | 0.00 | 0.00 | 0.00 | 68 | 1007.5 |
| 20260505024032 | 75 | 128 | 1.0 | 9.0 | 0.00 | 0.00 | 0.00 | 68 | 1007.4 |
| 20260505023528 | 76 | 0 | 1.0 | 9.0 | 0.00 | 0.00 | 0.00 | 68 | 1007.6 |
| 20260505023047 | 76 | 182 | 0.0 | 10.0 | 0.00 | 0.00 | 0.00 | 68 | 1007.5 |
| 20260505022529 | 76 | 187 | 1.0 | 10.0 | 0.00 | 0.00 | 0.00 | 68 | 1007.2 |
| 20260505022029 | 76 | 146 | 2.0 | 10.0 | 0.00 | 0.00 | 0.00 | 68 | 1007.2 |
| 20260505021538 | 76 | 0 | 2.0 | 10.0 | 0.00 | 0.00 | 0.00 | 67 | 1007.3 |
| 20260505021031 | 76 | 188 | 2.0 | 8.0 | 0.00 | 0.00 | 0.00 | 67 | 1007.2 |
| 20260505020529 | 76 | 0 | 1.0 | 6.0 | 0.00 | 0.00 | 0.00 | 67 | 1007.2 |
| 20260505020036 | 76 | 146 | 1.0 | 10.0 | 0.00 | 0.00 | 0.00 | 67 | 1007.0 |
| 20260505015529 | 76 | 209 | 1.0 | 10.0 | 0.00 | 0.00 | 0.00 | 66 | 1007.0 |
| 20260505015029 | 76 | 193 | 2.0 | 6.0 | 0.00 | 0.00 | 0.00 | 66 | 1007.2 |
| 20260505014536 | 77 | 212 | 0.0 | 6.0 | 0.00 | 0.00 | 0.00 | 66 | 1007.2 |